Location: Home
(42.5358°N, 72.7383°W)
Time: 00:02:51
(UTC-05:00)

Vanguard 3 - Pass Details

Date: 04 December 2021
Orbit: 508 x 3260 km, 33.3° (Epoch: 21 January)

Event Time Altitude Azimuth Distance (km) Brightness Sun altitude
Rises 01:06:15 0° 203° (SSW) 6,487 - -63.1°
Reaches altitude 10° 01:11:09 10° 194° (SSW) 5,769 - -62.4°
Maximum altitude 01:25:58 30° 142° (SE) 4,699 - -60.2°
Exits shadow 01:27:10 30° 136° (SE) 4,711 10.8 -60.1°
Drops below altitude 10° 01:40:53 10° 90° (E) 5,874 11.8 -57.9°
Sets 01:45:50 0° 81° (E) 6,624 12.3 -57.1°
